SCP
0 0 0 0 0 0 0 0 0 0 0 0 0 0 0 0 0 0 0 0 0 0 0 0 0 0 0 0 0 0 0 0 0 0 0 0 0 0 0 0 0 0 0 0
0 0 0 0 0 0 0 0 0 0 0 0 0 0 0 0 0 0 0 0 0 0 0 0 0 0 0 0 0 0 0 0 0 0 0 0 0 0 0 0 0 0 0 0
0 0 0 0 0 0 0 0 0 0 0 0 0 0 0 0 0 0 0 0 0 0 0 0 0 0 0 0 0 0 0 0 0 0 0 0 0 0 0 0 0 0 0 0
0 0 0 0 0 0 0 0 0 0 0 0 0 0 0 0 0 0 0 0 0 0 0 0 0 0 0 0 0 0 0 0 0 0 0 0 0 0 0 0 0 0 0 0
0 0 0 0 0 0 0 0 0 0 0 0 0 0 0 0 0 0 0 0 0 0 0 0 0 0 0 0 0 0 0 0 0 0 0 0 0 0 0 0 0 0 0 0
0 0 0 0 0 0 0 0 0 0 0 0 0 0 0 0 0 0 0 0 0 0 0 0 0 0 0 0 0 0 0 0 0 0 0 0 0 0 0 0 0 0 0 0
0 0 0 0 0 0 0 0 0 0 0 0 0 0 0 0 0 0 0 0 0 0 0 0 0 0 0 0 0 0 0 0 0 0 0 0 0 0 0 0 0 0 0 0
0 0 0 0 0 0 0 0 0 0 0 0 0 0 0 0 0 0 0 0 0 0 0 0 0 0 0 0 0 0 0 0 0 0 0 0 0 0 0 0 0 0 0 0
0 0 0 0 0 0 0 0 0 0 0 0 0 0 0 0 0 0 0 0 0 0 0 0 0 0 0 0 0 0 0 0 0 0 0 0 0 0 0 0 0 0 0 0
0 0 0 0 0 0 0 0 0 0 0 0 0 0 0 0 0 0 0 0 0 0 0 0 0 0 0 0 0 0 0 0 0 0 0 0 0 0 0 0 0 0 0 0
0 0 0 0 0 0 0 0 0 0 0 0 0 0 0 0 0 0 0 0 0 0 0 0 0 0 0 0 0 0 0 0 0 0 0 0 0 0 0 0 0 0 0 0
0 0 0 0 0 0 0 0 0 0 0 0 0 0 0 0 0 0 0 0 0 0 0 0 0 0 0 0 0 0 0 0 0 0 0 0 0 0 0 0 0 0 0 0
0 0 0 0 0 0 0 0 0 0 0 0 0 0 0 0 0 0 0 0 0 0 0 0 0 0 0 0 0 0 0 0 0 0 0 0 0 0 0 0 0 0 0 0
0 0 0 0 0 0 0 0 0 0 0 0 0 0 0 0 0 0 0 0 0 0 0 0 0 0 0 0 0 0 0 0 0 0 0 0 0 0 0 0 0 0 0 0
0 0 0 0 0 0 0 0 0 0 0 0 0 0 0 0 0 0 0 0 0 0 0 0 0 0 0 0 0 0 0 0 0 0 0 0 0 0 0 0 0 0 0 0
0 0 0 0 0 0 0 0 0 0 0 0 0 0 0 0 0 0 0 0 0 0 0 0 0 0 0 0 0 0 0 0 0 0 0 0 0 0 0 0 0 0 0 0
0 0 0 0 0 0 0 0 0 0 0 0 0 0 0 0 0 0 0 0 0 0 0 0 0 0 0 0 0 0 0 0 0 0 0 0 0 0 0 0 0 0 0 0
0 0 0 0 0 0 0 0 0 0 0 0 0 0 0 0 0 0 0 0 0 0 0 0 0 0 0 0 0 0 0 0 0 0 0 0 0 0 0 0 0 0 0 0
0 0 0 0 0 0 0 0 0 0 0 0 0 0 0 0 0 0 0 0 0 0 0 0 0 0 0 0 0 0 0 0 0 0 0 0 0 0 0 0 0 0 0 0
0 0 0 0 0 0 0 0 0 0 0 0 0 0 0 0 0 0 0 0 0 0 0 0 0 0 0 0 0 0 0 0 0 0 0 0 0 0 0 0 0 0 0 0
0 0 0 0 0 0 0 0 0 0 0 0 0 0 0 0 0 0 0 0 0 0 0 0 0 0 0 0 0 0 0 0 0 0 0 0 0 0 0 0 0 0 0 0
0 0 0 0 0 0 0 0 0 0 0 0 0 0 0 0 0 0 0 0 0 0 0 0 0 0 0 0 0 0 0 0 0 0 0 0 0 0 0 0 0 0 0 0
0 0 0 0 0 0 -0 0 0 0 0 0 0 0 0 0 0 0 0 0 0 0 0 0 0 0 0 0 0 0 0 0 0 0 0 0 0 0 0 0 0 0 0 0
0 0 0 0 0 0 0 0 0 0 0 0 0 0 0 0 0 0 0 0 0 0 0 0 0 0 0 0 0 0 0 0 0 0 0 0 0 0 0 0 0 0 0 0
0 0 0 0 0 0 -0 0 0 0 0 0 0 0 0 0 0 0 0 0 0 0 0 0 0 0 0 0 0 0 0 0 0 0 0 0 0 0 0 0 0 0 0 0
-0 -0 -0 0 0 0 0 0 0 0 0 0 0 0 0 0 0 0 0 0 0 0 0 0 0 0 0 0 0 0 0 0 0 0 0 0 0 0 0 0 0 0 0 0
Wind_Speed_500mb
44 18 34 41 16 9 28 26 12 13 7 8 4 25 28 21 15 11 8 13 17 27 31 39 46 46 41 40 39 38 39 39 43 47 53 48 47 42 35 35 28 28 27 24
21 34 34 34 19 32 34 34 11 11 10 6 3 11 21 21 15 20 21 1 12 20 29 27 34 41 42 46 45 42 41 40 38 41 48 48 43 39 33 29 33 31 27 24
29 26 33 36 24 31 30 27 21 12 11 5 4 6 22 14 7 25 26 15 18 15 29 31 31 20 19 21 29 41 48 51 43 39 42 42 40 40 39 35 33 29 28 27
13 30 33 37 31 33 19 19 28 25 12 6 6 6 17 17 10 9 12 20 17 10 18 26 35 55 27 19 25 30 35 44 51 51 53 51 43 40 40 38 34 30 27 28
7 28 39 30 24 12 16 23 24 18 10 8 8 3 9 21 11 8 4 15 15 8 12 22 24 36 47 42 48 48 42 42 43 41 48 55 52 47 32 43 40 39 38 37
8 13 19 14 16 28 37 37 28 11 5 5 12 6 7 11 3 9 10 9 9 6 13 18 23 23 24 26 25 26 26 29 34 51 49 42 39 46 48 48 45 43 49 53
10 7 7 34 36 28 26 20 8 7 6 4 3 6 10 9 3 4 7 21 11 5 10 14 17 19 20 17 17 18 19 20 26 27 32 37 41 48 47 42 44 46 43 32
8 15 9 17 20 19 26 14 5 10 12 11 7 10 9 7 2 6 10 16 19 9 6 9 10 13 13 11 11 10 12 15 17 20 25 30 33 35 33 34 37 38 35 37
6 10 6 5 10 28 10 10 5 11 4 7 10 4 3 3 9 11 10 14 11 12 9 6 6 8 6 6 8 9 10 10 12 16 19 21 24 27 32 34 37 39 37 36
2 10 6 9 13 8 10 12 3 1 10 7 6 6 5 1 3 10 9 8 11 13 10 7 4 3 3 3 5 7 9 11 12 14 15 19 24 22 23 27 29 31 33 34
5 2 5 4 6 10 9 10 7 5 5 5 9 5 5 6 2 9 13 10 8 11 10 8 7 6 7 7 6 5 6 7 9 11 14 17 19 20 22 23 24 24 27 24
6 8 13 8 5 7 5 9 4 3 4 5 5 5 6 8 11 12 13 14 12 10 10 9 9 9 9 9 7 6 6 4 6 7 8 10 12 14 15 17 20 22 20 22
2 6 10 8 4 4 3 2 5 9 2 4 2 9 5 4 11 10 14 14 14 13 11 9 9 10 11 11 10 8 6 6 5 5 4 4 6 5 5 10 13 16 16 20
8 9 7 7 8 6 8 6 4 6 3 8 5 19 10 6 7 4 6 11 13 10 9 7 8 8 9 11 12 11 11 11 10 7 7 6 7 8 9 10 12 12 14 13
6 9 12 15 7 5 6 13 7 6 5 2 14 16 18 9 6 7 5 6 10 11 10 8 7 7 7 10 10 10 11 13 15 15 13 11 12 13 11 13 14 16 16 17
6 8 4 8 16 10 11 12 13 8 7 11 10 6 7 7 7 8 11 3 6 9 9 7 6 6 6 7 8 11 12 12 14 15 17 17 16 18 18 18 18 17 17 19
6 9 3 3 9 4 7 5 5 6 4 11 9 8 11 8 1 3 7 4 4 9 12 10 8 8 9 9 9 10 12 15 17 17 19 22 21 20 21 22 22 22 23 24
8 7 6 4 5 2 4 2 5 1 6 9 9 11 8 9 6 5 6 5 2 8 13 15 14 14 14 13 12 13 13 13 16 17 19 21 22 23 25 25 23 22 22 20
16 7 7 5 1 7 1 7 9 10 10 9 6 7 8 9 17 8 8 1 5 8 13 14 18 21 20 17 15 14 15 17 18 20 21 23 24 22 22 22 21 20 19 18
11 17 5 3 5 9 4 1 3 2 6 13 10 8 5 10 7 6 4 8 4 5 12 12 15 19 21 22 22 22 20 20 20 20 20 20 20 21 21 20 20 19 19 16
6 7 6 3 1 7 8 5 4 6 2 22 19 15 10 5 7 4 7 5 5 1 9 12 16 16 17 19 20 21 22 22 22 21 19 19 20 19 18 18 18 17 16 13
0 5 3 4 1 7 16 9 10 1 18 28 23 16 11 8 3 5 8 9 9 6 5 13 18 22 23 22 21 23 25 27 25 23 21 20 18 17 16 17 16 15 13 10
2 4 1 12 4 2 33 6 16 18 28 27 22 18 10 3 2 4 6 10 12 11 9 12 20 27 27 21 23 24 23 25 24 25 24 24 25 24 23 21 20 18 16 15
8 9 4 2 5 24 27 40 20 25 22 25 22 20 13 12 18 19 19 15 17 17 15 17 23 32 36 31 26 24 28 28 25 25 24 24 25 26 28 28 27 25 21 20
1 15 7 11 18 27 33 37 44 34 33 23 24 27 22 25 26 28 24 24 23 21 21 21 24 31 38 40 34 33 31 31 30 29 29 30 30 30 31 30 28 27 25 23
21 13 12 11 16 10 11 19 23 47 47 37 35 34 34 35 32 32 36 31 27 19 18 19 22 29 38 46 45 43 41 40 37 37 35 34 34 36 36 35 33 30 30 30
Wind_Direction_500mb
190 180 194 190 187 159 130 124 125 95 61 79 52 215 243 294 314 16 219 191 170 168 174 181 190 189 192 205 209 213 215 214 215 213 209 211 213 214 214 221 225 226 231 234
154 198 189 176 169 162 134 126 115 79 109 90 83 255 239 271 285 17 360 244 142 171 167 163 184 196 198 201 208 213 219 221 219 217 212 215 218 216 223 230 228 231 233 237
164 158 153 147 152 139 123 157 154 138 135 72 154 229 214 251 228 49 48 82 100 138 160 163 162 157 178 199 213 217 214 215 218 218 213 216 217 216 220 223 227 231 235 245
87 148 150 163 163 148 109 137 133 134 163 179 268 172 204 192 77 58 46 50 76 75 132 155 166 206 237 216 215 231 239 234 218 214 216 216 216 217 219 222 226 234 240 247
77 155 151 146 147 131 130 143 118 110 116 156 181 226 121 180 138 177 217 58 70 84 110 129 136 157 191 214 213 216 221 230 227 236 226 222 225 223 222 229 232 233 238 245
88 132 159 143 143 113 119 100 80 105 125 174 169 235 127 135 219 185 163 107 77 107 106 114 128 140 150 165 181 201 208 220 213 218 220 228 222 242 235 239 242 246 246 240
62 80 129 135 110 123 134 131 138 147 172 123 143 206 66 87 21 198 173 152 152 133 121 126 131 135 137 144 160 170 190 193 208 217 220 224 223 228 233 226 235 248 258 251
19 117 100 176 139 163 162 167 189 151 165 128 131 209 116 59 117 86 103 168 190 197 116 115 121 115 123 136 135 144 173 179 185 199 216 227 232 238 238 234 238 240 245 255
105 62 24 124 111 149 165 201 28 107 49 145 157 111 180 186 83 86 108 142 168 197 207 152 101 95 113 134 146 168 188 197 195 200 207 213 224 231 238 240 245 246 252 254
103 112 26 100 120 66 174 147 171 61 143 122 157 154 98 101 49 135 141 138 140 151 175 223 180 130 134 160 178 184 198 211 220 221 226 229 224 223 228 231 233 243 243 247
125 21 117 153 15 144 140 184 43 81 23 112 145 102 14 9 320 125 131 143 147 134 130 139 130 145 169 168 167 186 209 215 222 230 234 238 237 234 231 228 232 238 232 230
28 68 133 67 32 22 338 173 203 232 156 52 50 94 42 40 71 113 145 156 152 135 130 126 124 128 136 148 150 160 165 195 228 228 228 233 233 232 228 229 227 222 225 231
71 47 115 101 353 48 71 88 151 106 83 125 139 143 81 74 99 123 153 159 149 139 130 123 118 117 120 125 125 129 137 141 149 150 161 178 178 188 192 213 219 228 228 232
93 61 35 149 73 85 151 156 83 90 123 141 52 144 173 149 109 130 171 159 150 147 143 139 132 121 115 117 124 129 127 121 113 125 132 128 121 141 172 157 150 153 156 160
66 86 88 68 47 99 129 164 141 99 121 89 152 148 158 151 101 77 52 159 164 178 178 166 155 136 128 120 121 118 119 122 119 117 120 127 142 150 158 153 164 158 150 158
22 130 160 62 26 118 123 122 112 90 116 89 126 117 107 93 92 74 51 42 218 220 211 207 188 167 151 137 132 130 132 126 130 140 145 147 150 149 147 150 150 152 156 154
66 135 83 72 350 336 99 177 142 128 164 144 169 122 150 153 110 313 333 344 264 216 217 216 204 199 192 175 165 157 155 149 146 146 146 143 143 144 144 141 139 139 137 133
112 85 20 109 317 188 60 310 333 144 176 189 126 142 155 142 152 193 205 213 238 208 201 203 210 209 203 194 186 177 171 161 154 152 149 145 143 145 141 139 140 140 136 135
46 106 88 127 158 316 111 200 178 187 218 210 203 139 126 135 138 111 58 103 205 196 198 206 204 200 191 187 188 192 186 178 170 165 159 154 150 150 150 148 151 148 141 141
47 54 85 131 156 203 38 125 205 222 243 176 168 136 111 142 161 112 9 46 41 228 206 213 213 201 197 192 186 187 188 185 182 176 171 166 166 165 165 162 157 150 145 142
20 13 69 126 199 275 240 186 160 177 20 154 154 142 122 97 89 90 40 33 40 121 223 227 211 208 206 204 199 193 193 189 189 188 190 186 183 179 172 167 163 160 159 160
2 128 138 124 218 264 168 132 196 16 139 155 156 155 142 122 77 23 20 25 12 337 254 225 219 209 203 204 205 204 198 198 198 198 195 192 187 185 187 186 184 189 183 186
278 219 250 211 226 237 193 210 200 171 160 171 171 169 165 166 335 299 320 334 333 329 295 253 219 214 211 211 211 213 214 211 203 198 196 196 197 198 199 204 205 206 211 219
216 183 236 302 198 235 231 227 216 201 199 187 195 199 218 271 288 278 267 279 296 292 284 256 240 224 216 215 212 204 211 221 223 216 217 222 223 216 210 208 211 217 224 237
21 158 185 260 269 264 264 240 229 219 208 210 208 213 241 265 270 262 266 261 277 278 275 271 251 235 225 222 220 217 216 215 221 232 239 240 234 226 223 224 227 232 239 248
188 190 191 231 233 232 295 290 247 225 227 222 222 241 253 256 269 264 263 262 255 269 277 272 262 242 225 222 222 222 227 236 239 244 247 242 231 226 226 230 235 242 249 255
Wind_Speed_850mb
44 18 34 41 16 9 28 26 12 13 7 8 4 25 28 21 15 11 8 13 17 27 31 39 46 46 41 40 39 38 39 39 43 47 53 48 47 42 35 35 28 28 27 24
21 34 34 34 19 32 34 34 11 11 10 6 3 11 21 21 15 20 21 1 12 20 29 27 34 41 42 46 45 42 41 40 38 41 48 48 43 39 33 29 33 31 27 24
29 26 33 36 24 31 30 27 21 12 11 5 4 6 22 14 7 25 26 15 18 15 29 31 31 20 19 21 29 41 48 51 43 39 42 42 40 40 39 35 33 29 28 27
13 30 33 37 31 33 19 19 28 25 12 6 6 6 17 17 10 9 12 20 17 10 18 26 35 55 27 19 25 30 35 44 51 51 53 51 43 40 40 38 34 30 27 28
7 28 39 30 24 12 16 23 24 18 10 8 8 3 9 21 11 8 4 15 15 8 12 22 24 36 47 42 48 48 42 42 43 41 48 55 52 47 32 43 40 39 38 37
8 13 19 14 16 28 37 37 28 11 5 5 12 6 7 11 3 9 10 9 9 6 13 18 23 23 24 26 25 26 26 29 34 51 49 42 39 46 48 48 45 43 49 53
10 7 7 34 36 28 26 20 8 7 6 4 3 6 10 9 3 4 7 21 11 5 10 14 17 19 20 17 17 18 19 20 26 27 32 37 41 48 47 42 44 46 43 32
8 15 9 17 20 19 26 14 5 10 12 11 7 10 9 7 2 6 10 16 19 9 6 9 10 13 13 11 11 10 12 15 17 20 25 30 33 35 33 34 37 38 35 37
6 10 6 5 10 28 10 10 5 11 4 7 10 4 3 3 9 11 10 14 11 12 9 6 6 8 6 6 8 9 10 10 12 16 19 21 24 27 32 34 37 39 37 36
2 10 6 9 13 8 10 12 3 1 10 7 6 6 5 1 3 10 9 8 11 13 10 7 4 3 3 3 5 7 9 11 12 14 15 19 24 22 23 27 29 31 33 34
5 2 5 4 6 10 9 10 7 5 5 5 9 5 5 6 2 9 13 10 8 11 10 8 7 6 7 7 6 5 6 7 9 11 14 17 19 20 22 23 24 24 27 24
6 8 13 8 5 7 5 9 4 3 4 5 5 5 6 8 11 12 13 14 12 10 10 9 9 9 9 9 7 6 6 4 6 7 8 10 12 14 15 17 20 22 20 22
2 6 10 8 4 4 3 2 5 9 2 4 2 9 5 4 11 10 14 14 14 13 11 9 9 10 11 11 10 8 6 6 5 5 4 4 6 5 5 10 13 16 16 20
8 9 7 7 8 6 8 6 4 6 3 8 5 19 10 6 7 4 6 11 13 10 9 7 8 8 9 11 12 11 11 11 10 7 7 6 7 8 9 10 12 12 14 13
6 9 12 15 7 5 6 13 7 6 5 2 14 16 18 9 6 7 5 6 10 11 10 8 7 7 7 10 10 10 11 13 15 15 13 11 12 13 11 13 14 16 16 17
6 8 4 8 16 10 11 12 13 8 7 11 10 6 7 7 7 8 11 3 6 9 9 7 6 6 6 7 8 11 12 12 14 15 17 17 16 18 18 18 18 17 17 19
6 9 3 3 9 4 7 5 5 6 4 11 9 8 11 8 1 3 7 4 4 9 12 10 8 8 9 9 9 10 12 15 17 17 19 22 21 20 21 22 22 22 23 24
8 7 6 4 5 2 4 2 5 1 6 9 9 11 8 9 6 5 6 5 2 8 13 15 14 14 14 13 12 13 13 13 16 17 19 21 22 23 25 25 23 22 22 20
16 7 7 5 1 7 1 7 9 10 10 9 6 7 8 9 17 8 8 1 5 8 13 14 18 21 20 17 15 14 15 17 18 20 21 23 24 22 22 22 21 20 19 18
11 17 5 3 5 9 4 1 3 2 6 13 10 8 5 10 7 6 4 8 4 5 12 12 15 19 21 22 22 22 20 20 20 20 20 20 20 21 21 20 20 19 19 16
6 7 6 3 1 7 8 5 4 6 2 22 19 15 10 5 7 4 7 5 5 1 9 12 16 16 17 19 20 21 22 22 22 21 19 19 20 19 18 18 18 17 16 13
0 5 3 4 1 7 16 9 10 1 18 28 23 16 11 8 3 5 8 9 9 6 5 13 18 22 23 22 21 23 25 27 25 23 21 20 18 17 16 17 16 15 13 10
2 4 1 12 4 2 33 6 16 18 28 27 22 18 10 3 2 4 6 10 12 11 9 12 20 27 27 21 23 24 23 25 24 25 24 24 25 24 23 21 20 18 16 15
8 9 4 2 5 24 27 40 20 25 22 25 22 20 13 12 18 19 19 15 17 17 15 17 23 32 36 31 26 24 28 28 25 25 24 24 25 26 28 28 27 25 21 20
1 15 7 11 18 27 33 37 44 34 33 23 24 27 22 25 26 28 24 24 23 21 21 21 24 31 38 40 34 33 31 31 30 29 29 30 30 30 31 30 28 27 25 23
21 13 12 11 16 10 11 19 23 47 47 37 35 34 34 35 32 32 36 31 27 19 18 19 22 29 38 46 45 43 41 40 37 37 35 34 34 36 36 35 33 30 30 30
Wind_Direction_850mb
190 180 194 190 187 159 130 124 125 95 61 79 52 215 243 294 314 16 219 191 170 168 174 181 190 189 192 205 209 213 215 214 215 213 209 211 213 214 214 221 225 226 231 234
154 198 189 176 169 162 134 126 115 79 109 90 83 255 239 271 285 17 360 244 142 171 167 163 184 196 198 201 208 213 219 221 219 217 212 215 218 216 223 230 228 231 233 237
164 158 153 147 152 139 123 157 154 138 135 72 154 229 214 251 228 49 48 82 100 138 160 163 162 157 178 199 213 217 214 215 218 218 213 216 217 216 220 223 227 231 235 245
87 148 150 163 163 148 109 137 133 134 163 179 268 172 204 192 77 58 46 50 76 75 132 155 166 206 237 216 215 231 239 234 218 214 216 216 216 217 219 222 226 234 240 247
77 155 151 146 147 131 130 143 118 110 116 156 181 226 121 180 138 177 217 58 70 84 110 129 136 157 191 214 213 216 221 230 227 236 226 222 225 223 222 229 232 233 238 245
88 132 159 143 143 113 119 100 80 105 125 174 169 235 127 135 219 185 163 107 77 107 106 114 128 140 150 165 181 201 208 220 213 218 220 228 222 242 235 239 242 246 246 240
62 80 129 135 110 123 134 131 138 147 172 123 143 206 66 87 21 198 173 152 152 133 121 126 131 135 137 144 160 170 190 193 208 217 220 224 223 228 233 226 235 248 258 251
19 117 100 176 139 163 162 167 189 151 165 128 131 209 116 59 117 86 103 168 190 197 116 115 121 115 123 136 135 144 173 179 185 199 216 227 232 238 238 234 238 240 245 255
105 62 24 124 111 149 165 201 28 107 49 145 157 111 180 186 83 86 108 142 168 197 207 152 101 95 113 134 146 168 188 197 195 200 207 213 224 231 238 240 245 246 252 254
103 112 26 100 120 66 174 147 171 61 143 122 157 154 98 101 49 135 141 138 140 151 175 223 180 130 134 160 178 184 198 211 220 221 226 229 224 223 228 231 233 243 243 247
125 21 117 153 15 144 140 184 43 81 23 112 145 102 14 9 320 125 131 143 147 134 130 139 130 145 169 168 167 186 209 215 222 230 234 238 237 234 231 228 232 238 232 230
28 68 133 67 32 22 338 173 203 232 156 52 50 94 42 40 71 113 145 156 152 135 130 126 124 128 136 148 150 160 165 195 228 228 228 233 233 232 228 229 227 222 225 231
71 47 115 101 353 48 71 88 151 106 83 125 139 143 81 74 99 123 153 159 149 139 130 123 118 117 120 125 125 129 137 141 149 150 161 178 178 188 192 213 219 228 228 232
93 61 35 149 73 85 151 156 83 90 123 141 52 144 173 149 109 130 171 159 150 147 143 139 132 121 115 117 124 129 127 121 113 125 132 128 121 141 172 157 150 153 156 160
66 86 88 68 47 99 129 164 141 99 121 89 152 148 158 151 101 77 52 159 164 178 178 166 155 136 128 120 121 118 119 122 119 117 120 127 142 150 158 153 164 158 150 158
22 130 160 62 26 118 123 122 112 90 116 89 126 117 107 93 92 74 51 42 218 220 211 207 188 167 151 137 132 130 132 126 130 140 145 147 150 149 147 150 150 152 156 154
66 135 83 72 350 336 99 177 142 128 164 144 169 122 150 153 110 313 333 344 264 216 217 216 204 199 192 175 165 157 155 149 146 146 146 143 143 144 144 141 139 139 137 133
112 85 20 109 317 188 60 310 333 144 176 189 126 142 155 142 152 193 205 213 238 208 201 203 210 209 203 194 186 177 171 161 154 152 149 145 143 145 141 139 140 140 136 135
46 106 88 127 158 316 111 200 178 187 218 210 203 139 126 135 138 111 58 103 205 196 198 206 204 200 191 187 188 192 186 178 170 165 159 154 150 150 150 148 151 148 141 141
47 54 85 131 156 203 38 125 205 222 243 176 168 136 111 142 161 112 9 46 41 228 206 213 213 201 197 192 186 187 188 185 182 176 171 166 166 165 165 162 157 150 145 142
20 13 69 126 199 275 240 186 160 177 20 154 154 142 122 97 89 90 40 33 40 121 223 227 211 208 206 204 199 193 193 189 189 188 190 186 183 179 172 167 163 160 159 160
2 128 138 124 218 264 168 132 196 16 139 155 156 155 142 122 77 23 20 25 12 337 254 225 219 209 203 204 205 204 198 198 198 198 195 192 187 185 187 186 184 189 183 186
278 219 250 211 226 237 193 210 200 171 160 171 171 169 165 166 335 299 320 334 333 329 295 253 219 214 211 211 211 213 214 211 203 198 196 196 197 198 199 204 205 206 211 219
216 183 236 302 198 235 231 227 216 201 199 187 195 199 218 271 288 278 267 279 296 292 284 256 240 224 216 215 212 204 211 221 223 216 217 222 223 216 210 208 211 217 224 237
21 158 185 260 269 264 264 240 229 219 208 210 208 213 241 265 270 262 266 261 277 278 275 271 251 235 225 222 220 217 216 215 221 232 239 240 234 226 223 224 227 232 239 248
188 190 191 231 233 232 295 290 247 225 227 222 222 241 253 256 269 264 263 262 255 269 277 272 262 242 225 222 222 222 227 236 239 244 247 242 231 226 226 230 235 242 249 255